Oshkosh, WI

11:33 AM CST on November 22, 2019 (GMT -0600)
Wittman Regional

Weather History for KOSH - September, 2019

Change the Weather History Date:

Sunday, September 22, 2019

  Actual Average Record
Temperature  
Mean Temperature 68 °F -  
Max Temperature 73 °F 64 °F 89 °F (2017)
Min Temperature 61 °F 45 °F 25 °F (1974)
Cooling Degree Days 4    
Growing Degree Days 18 (Base 50)    
Moisture  
Dew Point 67 °F    
Average Humidity 91    
Maximum Humidity 94    
Minimum Humidity 84    
Precipitation  
Precipitation 1.13 in - - ()
Sea Level Pressure  
Sea Level Pressure 29.81 in    
Wind  
Wind Speed 10 mph (SW)    
Max Wind Speed 14 mph    
Max Gust Speed 28 mph    
Visibility 7 miles    
Events Rain , Thunderstorm    
Averages and records for this station are not official NWS values.
T = Trace of Precipitation, MM = Missing Value Source: NWS Daily Summary

Daily Weather History Graph

Daily Weather History Graph

Search for Another Location

Airport or City:

Astronomy

Sep. 22, 2019 Rise Set
Actual Time 6:41 AM CDT 6:52 PM CDT
Civil Twilight 6:12 AM CDT 7:20 PM CDT
Nautical Twilight 5:38 AM CDT 7:54 PM CDT
Astronomical Twilight 5:03 AM CDT 8:29 PM CDT
Moon No Moon Rise 3:00 PM CDT
Length of Visible Light 13h 08m
Length of Day
12h 10m
Last Quarter, 44% of the Moon is Illuminated
Sep 22
Last Quarter
Sep 28
New
Oct 5
First Quarter
Oct 13
Full
Oct 21
Last Quarter

Hourly Weather History & Observations

Time (CDT) Temp. Dew Point Humidity Pressure Visibility Wind Dir Wind Speed Gust Speed Precip Events Conditions
12:53 AM 73.0 °F 69.1 °F 87% 29.85 in 10.0 mi SSW 13.8 mph 23.0 mph N/A   Overcast
1:13 AM 73.0 °F 69.1 °F 87% 29.89 in 10.0 mi SSW 12.7 mph 27.6 mph N/A   Overcast
1:53 AM 72.0 °F 69.1 °F 91% 29.83 in 10.0 mi SSW 12.7 mph 25.3 mph 0.04 in   Mostly Cloudy
2:32 AM 72.0 °F 69.1 °F 91% 29.86 in 10.0 mi SSW 9.2 mph - N/A   Overcast
2:53 AM 72.0 °F 69.1 °F 91% 29.83 in 10.0 mi SSW 10.4 mph - N/A   Overcast
3:23 AM 72.0 °F 68.0 °F 87% 29.85 in 10.0 mi SSW 9.2 mph - N/A   Overcast
3:44 AM 72.0 °F 68.0 °F 87% 29.84 in 10.0 mi SSW 9.2 mph - N/A   Overcast
3:53 AM 72.0 °F 68.0 °F 87% 29.81 in 10.0 mi SSW 10.4 mph - N/A   Overcast
4:29 AM 72.0 °F 69.1 °F 91% 29.84 in 10.0 mi SSW 10.4 mph - N/A   Overcast
4:45 AM 72.0 °F 69.1 °F 91% 29.84 in 10.0 mi SSW 10.4 mph 19.6 mph N/A   Overcast
4:53 AM 72.0 °F 69.1 °F 91% 29.81 in 10.0 mi South 12.7 mph - N/A   Overcast
5:01 AM 72.0 °F 69.1 °F 91% 29.83 in 10.0 mi South 10.4 mph - N/A Thunderstorm Overcast
5:16 AM 71.1 °F 69.1 °F 93% 29.83 in 5.0 mi South 11.5 mph - 0.02 in Rain , Thunderstorm Thunderstorms and Rain
5:19 AM 71.1 °F 69.1 °F 93% 29.83 in 2.0 mi South 9.2 mph - 0.18 in Rain , Thunderstorm Heavy Thunderstorms and Rain
5:21 AM 71.1 °F 69.1 °F 93% 29.83 in 1.2 mi South 10.4 mph 19.6 mph 0.26 in Rain , Thunderstorm Heavy Thunderstorms and Rain
5:27 AM 71.1 °F 66.0 °F 84% 29.83 in 0.8 mi South 10.4 mph 25.3 mph 0.38 in Rain , Thunderstorm Heavy Thunderstorms and Rain
5:31 AM 72.0 °F 68.0 °F 87% 29.83 in 1.8 mi South 11.5 mph 25.3 mph 0.38 in Rain , Thunderstorm Light Thunderstorms and Rain
5:33 AM 72.0 °F 68.0 °F 87% 29.83 in 3.0 mi South 10.4 mph - 0.38 in Rain , Thunderstorm Light Thunderstorms and Rain
5:51 AM 71.6 °F 69.8 °F 94% 29.83 in 6.0 mi SSW 8.1 mph - 0.40 in Rain Light Rain
5:53 AM 71.1 °F 69.1 °F 93% 29.80 in 5.0 mi SSW 8.1 mph - 0.41 in Rain Light Rain
6:04 AM 71.1 °F 69.1 °F 93% 29.82 in 4.0 mi SSW 8.1 mph - 0.02 in Rain , Thunderstorm Light Rain
6:21 AM 71.1 °F 69.1 °F 93% 29.82 in 5.0 mi SSW 9.2 mph - 0.03 in Rain Light Rain
6:23 AM 71.1 °F 69.1 °F 93% 29.83 in 4.0 mi South 9.2 mph - 0.04 in Rain , Thunderstorm Thunderstorms and Rain
6:30 AM 71.1 °F 69.1 °F 93% 29.83 in 3.0 mi SSW 6.9 mph - 0.07 in Rain , Thunderstorm Thunderstorms and Rain
6:39 AM 71.1 °F 69.1 °F 93% 29.82 in 2.5 mi SSW 5.8 mph - 0.13 in Rain , Thunderstorm Heavy Thunderstorms and Rain
6:46 AM 71.1 °F 69.1 °F 93% 29.82 in 3.0 mi SSW 6.9 mph - 0.15 in Rain , Thunderstorm Light Thunderstorms and Rain
6:53 AM 71.1 °F 69.1 °F 93% 29.80 in 4.0 mi SSW 8.1 mph - 0.16 in Rain Rain
7:04 AM 71.1 °F 69.1 °F 93% 29.83 in 1.8 mi SSW 9.2 mph - 0.10 in Rain Heavy Rain
7:13 AM 71.1 °F 69.1 °F 93% 29.83 in 2.0 mi SSW 10.4 mph - 0.17 in Rain , Thunderstorm Rain
7:22 AM 71.1 °F 69.1 °F 93% 29.84 in 5.0 mi SW 8.1 mph 20.7 mph 0.19 in Rain , Thunderstorm Rain
7:26 AM 71.1 °F 69.1 °F 93% 29.84 in 5.0 mi SW 8.1 mph 20.7 mph 0.20 in Rain Rain
7:38 AM 70.0 °F 68.0 °F 93% 29.84 in 4.0 mi WSW 8.1 mph - 0.24 in Rain Rain
7:53 AM 69.1 °F 66.9 °F 93% 29.81 in 3.0 mi West 10.4 mph 21.9 mph 0.27 in Rain Rain
8:53 AM 68.0 °F 64.0 °F 87% 29.76 in 10.0 mi West 4.6 mph - 0.06 in   Mostly Cloudy
9:53 AM 68.0 °F 64.9 °F 90% 29.79 in 3.0 mi Variable 4.6 mph - 0.03 in Rain Light Rain
10:53 AM 68.0 °F 66.0 °F 93% 29.78 in 9.0 mi SSW 5.8 mph - 0.05 in Rain Light Rain
11:09 AM 68.0 °F 64.9 °F 90% 29.81 in 10.0 mi SW 4.6 mph - 0.00 in Rain Light Rain
11:18 AM 68.0 °F 64.9 °F 90% 29.81 in 10.0 mi SSW 5.8 mph - 0.00 in   Overcast
11:26 AM 68.0 °F 64.9 °F 90% 29.81 in 10.0 mi SW 4.6 mph - 0.00 in Rain Light Rain
11:53 AM 68.0 °F 64.9 °F 90% 29.79 in 7.0 mi WSW 5.8 mph - 0.01 in Rain Light Rain
12:53 PM 68.0 °F 64.0 °F 87% 29.76 in 10.0 mi SW 4.6 mph - 0.02 in Rain Light Rain
1:53 PM 68.0 °F 64.0 °F 87% 29.76 in 10.0 mi SW 4.6 mph - 0.00 in   Overcast
2:53 PM 69.1 °F 64.9 °F 87% 29.76 in 10.0 mi SW 8.1 mph - N/A   Overcast
3:01 PM 66.0 °F 63.0 °F 90% 29.80 in 2.0 mi WNW 9.2 mph 19.6 mph 0.03 in Rain Heavy Rain
3:04 PM 64.9 °F 62.1 °F 90% 29.80 in 3.0 mi WNW 8.1 mph 19.6 mph 0.03 in Rain Light Rain
3:53 PM 66.0 °F 63.0 °F 90% 29.75 in 10.0 mi SSW 4.6 mph - 0.03 in   Overcast
4:53 PM 66.0 °F 63.0 °F 90% 29.73 in 10.0 mi South 8.1 mph - N/A   Overcast
5:53 PM 66.0 °F 63.0 °F 90% 29.75 in 10.0 mi SW 4.6 mph - N/A   Mostly Cloudy
6:53 PM 66.0 °F 63.0 °F 90% 29.77 in 10.0 mi WSW 3.5 mph - N/A   Overcast
7:53 PM 64.0 °F 62.1 °F 93% 29.78 in 10.0 mi Calm Calm - N/A   Clear
8:53 PM 64.0 °F 62.1 °F 93% 29.78 in 10.0 mi Variable 3.5 mph - N/A   Clear
9:53 PM 64.0 °F 62.1 °F 93% 29.79 in 10.0 mi WSW 4.6 mph - N/A   Mostly Cloudy
10:53 PM 64.9 °F 61.0 °F 87% 29.81 in 9.0 mi WNW 13.8 mph 21.9 mph 0.01 in Rain Light Rain
11:53 PM 61.0 °F 57.9 °F 90% 29.81 in 8.0 mi NNW 6.9 mph - 0.04 in Rain Light Rain